| time (UTC) | temp F | wind direction | speed MPH | gust MPH | rain 1hr in | rain 24hr in | rain mn in | humidity % | barometer mb |
| 20260506231001 | 67 | 357 | 0.0 | 0.0 | 0.00 | 0.00 | 0.00 | 76 | 1003.1 |
| 20260506230555 | 67 | 359 | 0.0 | 0.0 | 0.00 | 0.00 | 0.00 | 75 | 1003.1 |
| 20260506230059 | 67 | 359 | 0.0 | 0.0 | 0.00 | 0.00 | 0.00 | 75 | 1003.1 |
| 20260506225603 | 67 | 357 | 0.0 | 0.0 | 0.00 | 0.00 | 0.00 | 75 | 1003.2 |
| 20260506225107 | 67 | 359 | 0.0 | 0.0 | 0.00 | 0.00 | 0.00 | 75 | 1003.2 |
| 20260506224605 | 67 | 359 | 0.0 | 0.0 | 0.00 | 0.00 | 0.00 | 75 | 1003.2 |
| 20260506224057 | 67 | 359 | 0.0 | 0.0 | 0.00 | 0.00 | 0.00 | 75 | 1003.2 |
| 20260506223600 | 67 | 257 | 0.0 | 0.0 | 0.00 | 0.00 | 0.00 | 74 | 1003.2 |
| 20260506223102 | 67 | 257 | 0.0 | 0.0 | 0.00 | 0.00 | 0.00 | 74 | 1003.2 |
| 20260506222509 | 67 | 254 | 0.0 | 0.0 | 0.00 | 0.00 | 0.00 | 74 | 1003.2 |
| 20260506222010 | 67 | 254 | 0.0 | 0.0 | 0.00 | 0.00 | 0.00 | 74 | 1003.2 |
| 20260506221603 | 67 | 254 | 0.0 | 0.0 | 0.00 | 0.00 | 0.00 | 74 | 1003.2 |
| 20260506221107 | 67 | 254 | 0.0 | 0.0 | 0.00 | 0.00 | 0.00 | 74 | 1002.9 |
| 20260506220503 | 67 | 254 | 0.0 | 0.0 | 0.00 | 0.00 | 0.00 | 73 | 1002.9 |
| 20260506220057 | 67 | 254 | 0.0 | 0.0 | 0.00 | 0.00 | 0.00 | 73 | 1002.9 |
| 20260506215559 | 67 | 254 | 0.0 | 0.0 | 0.00 | 0.00 | 0.00 | 73 | 1003.0 |
| 20260506215101 | 67 | 254 | 0.0 | 0.0 | 0.00 | 0.00 | 0.00 | 73 | 1003.0 |
| 20260506214618 | 67 | 254 | 0.0 | 0.0 | 0.00 | 0.00 | 0.00 | 73 | 1003.0 |
| 20260506214003 | 67 | 254 | 0.0 | 0.0 | 0.00 | 0.00 | 0.00 | 74 | 1002.8 |
| 20260506213504 | 67 | 254 | 0.0 | 0.0 | 0.00 | 0.00 | 0.00 | 73 | 1002.8 |
| 20260506213011 | 67 | 254 | 0.0 | 0.0 | 0.00 | 0.00 | 0.00 | 73 | 1002.8 |
| 20260506212600 | 67 | 254 | 0.0 | 0.0 | 0.00 | 0.00 | 0.00 | 73 | 1002.9 |
| 20260506212104 | 67 | 254 | 0.0 | 0.0 | 0.00 | 0.00 | 0.00 | 73 | 1002.9 |
| 20260506211606 | 67 | 254 | 0.0 | 0.0 | 0.00 | 0.00 | 0.00 | 73 | 1002.9 |
| 20260506211003 | 68 | 254 | 0.0 | 0.0 | 0.00 | 0.00 | 0.00 | 73 | 1002.8 |
| 20260506210506 | 68 | 247 | 0.0 | 0.0 | 0.00 | 0.00 | 0.00 | 73 | 1002.8 |
| 20260506210059 | 68 | 247 | 0.0 | 0.0 | 0.00 | 0.00 | 0.00 | 73 | 1002.8 |
| 20260506205603 | 67 | 247 | 0.0 | 0.0 | 0.00 | 0.00 | 0.00 | 73 | 1002.7 |
| 20260506205107 | 67 | 247 | 0.0 | 0.0 | 0.00 | 0.00 | 0.00 | 75 | 1002.7 |
| 20260506204503 | 66 | 247 | 0.0 | 0.0 | 0.00 | 0.00 | 0.00 | 76 | 1002.7 |
| 20260506204057 | 66 | 247 | 0.0 | 0.0 | 0.00 | 0.00 | 0.00 | 76 | 1002.7 |
| 20260506203559 | 66 | 247 | 0.0 | 0.0 | 0.00 | 0.00 | 0.00 | 77 | 1002.7 |
| 20260506203102 | 66 | 247 | 0.0 | 0.0 | 0.00 | 0.00 | 0.00 | 78 | 1002.7 |
| 20260506202605 | 65 | 247 | 0.0 | 0.0 | 0.00 | 0.00 | 0.00 | 78 | 1002.7 |
| 20260506202003 | 65 | 247 | 0.0 | 0.0 | 0.00 | 0.00 | 0.00 | 79 | 1002.7 |
| 20260506201507 | 65 | 247 | 0.0 | 0.0 | 0.00 | 0.00 | 0.00 | 79 | 1002.7 |
| 20260506201007 | 65 | 247 | 0.0 | 0.0 | 0.00 | 0.00 | 0.00 | 80 | 1002.7 |
| 20260506200515 | 65 | 223 | 0.0 | 0.0 | 0.00 | 0.00 | 0.00 | 80 | 1002.7 |
| 20260506200104 | 65 | 265 | 0.0 | 0.0 | 0.00 | 0.00 | 0.00 | 81 | 1002.7 |
| 20260506195502 | 64 | 38 | 0.0 | 0.0 | 0.00 | 0.00 | 0.00 | 82 | 1003.0 |
| 20260506195004 | 64 | 199 | 0.0 | 0.0 | 0.00 | 0.00 | 0.00 | 84 | 1003.0 |
| 20260506194607 | 64 | 199 | 0.0 | 0.0 | 0.00 | 0.00 | 0.00 | 83 | 1003.0 |
| 20260506194105 | 63 | 213 | 0.0 | 0.0 | 0.00 | 0.00 | 0.00 | 84 | 1003.2 |
| 20260506193505 | 63 | 213 | 0.0 | 0.0 | 0.00 | 0.00 | 0.00 | 84 | 1003.2 |
| 20260506193100 | 63 | 198 | 0.0 | 0.0 | 0.00 | 0.00 | 0.00 | 84 | 1003.2 |
| 20260506192600 | 63 | 198 | 0.0 | 0.0 | 0.00 | 0.00 | 0.00 | 85 | 1003.3 |
| 20260506192002 | 63 | 198 | 0.0 | 0.0 | 0.00 | 0.00 | 0.00 | 85 | 1003.3 |
| 20260506191506 | 63 | 172 | 0.0 | 0.0 | 0.00 | 0.00 | 0.00 | 85 | 1003.3 |
| 20260506191058 | 62 | 189 | 0.0 | 0.0 | 0.00 | 0.00 | 0.00 | 86 | 1003.4 |
| 20260506190606 | 62 | 191 | 0.0 | 0.0 | 0.00 | 0.00 | 0.00 | 86 | 1003.4 |
| 20260506190106 | 62 | 175 | 0.0 | 0.0 | 0.00 | 0.00 | 0.00 | 86 | 1003.4 |
| 20260506185553 | 62 | 175 | 0.0 | 0.0 | 0.00 | 0.00 | 0.00 | 86 | 1003.5 |
| 20260506185101 | 62 | 175 | 0.0 | 0.0 | 0.00 | 0.00 | 0.00 | 86 | 1003.5 |
| 20260506184607 | 62 | 171 | 0.0 | 0.0 | 0.00 | 0.00 | 0.00 | 86 | 1003.5 |
| 20260506184005 | 62 | 174 | 0.0 | 0.0 | 0.00 | 0.00 | 0.00 | 87 | 1003.6 |
| 20260506183556 | 62 | 168 | 0.0 | 0.0 | 0.00 | 0.00 | 0.00 | 87 | 1003.6 |
| 20260506183106 | 62 | 168 | 0.0 | 0.0 | 0.00 | 0.00 | 0.00 | 88 | 1003.6 |
| 20260506182601 | 62 | 168 | 0.0 | 0.0 | 0.00 | 0.00 | 0.00 | 88 | 1003.7 |
| 20260506182103 | 61 | 196 | 0.0 | 0.0 | 0.00 | 0.00 | 0.00 | 88 | 1003.7 |
| 20260506181607 | 61 | 179 | 0.0 | 0.0 | 0.00 | 0.00 | 0.00 | 88 | 1003.7 |
| 20260506181004 | 61 | 179 | 0.0 | 0.0 | 0.00 | 0.00 | 0.00 | 88 | 1003.8 |
| 20260506180507 | 61 | 179 | 0.0 | 0.0 | 0.00 | 0.00 | 0.00 | 89 | 1003.8 |
| 20260506175603 | 61 | 184 | 0.0 | 0.0 | 0.00 | 0.00 | 0.00 | 90 | 1003.9 |
| 20260506175106 | 61 | 184 | 0.0 | 0.0 | 0.00 | 0.00 | 0.00 | 90 | 1003.9 |
| 20260506174502 | 61 | 184 | 0.0 | 0.0 | 0.00 | 0.00 | 0.00 | 90 | 1003.9 |
| 20260506174056 | 61 | 184 | 0.0 | 0.0 | 0.00 | 0.00 | 0.00 | 91 | 1003.9 |
| 20260506173558 | 61 | 189 | 0.0 | 0.0 | 0.00 | 0.00 | 0.00 | 91 | 1003.9 |
| 20260506173103 | 61 | 172 | 0.0 | 0.0 | 0.00 | 0.00 | 0.00 | 91 | 1003.9 |
| 20260506172501 | 61 | 172 | 0.0 | 0.0 | 0.00 | 0.00 | 0.00 | 91 | 1003.9 |
| 20260506172008 | 61 | 172 | 0.0 | 0.0 | 0.00 | 0.00 | 0.00 | 91 | 1003.9 |
| 20260506171512 | 61 | 154 | 0.0 | 0.0 | 0.00 | 0.00 | 0.00 | 91 | 1003.9 |
| 20260506171011 | 61 | 195 | 0.0 | 0.0 | 0.00 | 0.00 | 0.00 | 91 | 1004.1 |
| 20260506170605 | 61 | 195 | 0.0 | 0.0 | 0.00 | 0.00 | 0.00 | 92 | 1004.1 |
| 20260506170055 | 61 | 195 | 0.0 | 0.0 | 0.00 | 0.00 | 0.00 | 91 | 1004.1 |
| 20260506165557 | 61 | 195 | 0.0 | 0.0 | 0.00 | 0.00 | 0.00 | 92 | 1004.2 |
| 20260506165059 | 61 | 195 | 0.0 | 0.0 | 0.00 | 0.00 | 0.00 | 91 | 1004.2 |
| 20260506164557 | 61 | 195 | 0.0 | 0.0 | 0.00 | 0.00 | 0.00 | 91 | 1004.2 |
| 20260506164100 | 61 | 195 | 0.0 | 0.0 | 0.00 | 0.00 | 0.00 | 91 | 1004.3 |
| 20260506163559 | 61 | 195 | 0.0 | 0.0 | 0.00 | 0.00 | 0.00 | 92 | 1004.3 |
| 20260506163107 | 61 | 195 | 0.0 | 0.0 | 0.00 | 0.00 | 0.00 | 91 | 1004.3 |
| 20260506162549 | 61 | 195 | 0.0 | 0.0 | 0.00 | 0.00 | 0.00 | 91 | 1004.3 |
| 20260506162036 | 61 | 179 | 0.0 | 0.0 | 0.00 | 0.00 | 0.00 | 91 | 1004.3 |
| 20260506161544 | 61 | 178 | 0.0 | 0.0 | 0.00 | 0.00 | 0.00 | 91 | 1004.3 |
| 20260506161050 | 60 | 178 | 0.0 | 0.0 | 0.00 | 0.00 | 0.00 | 90 | 1004.7 |
| 20260506160555 | 60 | 178 | 0.0 | 0.0 | 0.00 | 0.00 | 0.00 | 89 | 1004.7 |
| 20260506160059 | 60 | 176 | 0.0 | 0.0 | 0.00 | 0.00 | 0.00 | 88 | 1004.7 |
| 20260506155601 | 60 | 158 | 0.0 | 0.0 | 0.00 | 0.00 | 0.00 | 88 | 1005.5 |
| 20260506155104 | 61 | 158 | 0.0 | 0.0 | 0.00 | 0.00 | 0.00 | 87 | 1005.5 |
| 20260506154616 | 61 | 160 | 0.0 | 0.0 | 0.00 | 0.00 | 0.00 | 86 | 1005.5 |
| 20260506154003 | 61 | 186 | 0.0 | 0.0 | 0.00 | 0.00 | 0.00 | 86 | 1005.5 |
| 20260506153505 | 61 | 186 | 0.0 | 0.0 | 0.00 | 0.00 | 0.00 | 85 | 1005.5 |
| 20260506153058 | 61 | 181 | 0.0 | 0.0 | 0.00 | 0.00 | 0.00 | 85 | 1005.5 |
| 20260506152600 | 61 | 181 | 0.0 | 0.0 | 0.00 | 0.00 | 0.00 | 84 | 1005.2 |
| 20260506152104 | 61 | 181 | 0.0 | 0.0 | 0.00 | 0.00 | 0.00 | 84 | 1005.2 |
| 20260506151504 | 61 | 181 | 0.0 | 0.0 | 0.00 | 0.00 | 0.00 | 83 | 1005.2 |
| 20260506151057 | 62 | 181 | 0.0 | 0.0 | 0.00 | 0.00 | 0.00 | 82 | 1005.0 |
| 20260506150600 | 62 | 181 | 0.0 | 0.0 | 0.00 | 0.00 | 0.00 | 81 | 1005.0 |
| 20260506150104 | 62 | 181 | 0.0 | 0.0 | 0.00 | 0.00 | 0.00 | 79 | 1005.0 |
| 20260506145501 | 62 | 179 | 0.0 | 0.0 | 0.00 | 0.00 | 0.00 | 78 | 1005.0 |
| 20260506145057 | 63 | 179 | 0.0 | 0.0 | 0.00 | 0.00 | 0.00 | 76 | 1005.0 |
| 20260506144603 | 63 | 171 | 0.0 | 0.0 | 0.00 | 0.00 | 0.00 | 75 | 1005.0 |
| 20260506144100 | 63 | 171 | 0.0 | 0.0 | 0.00 | 0.00 | 0.00 | 74 | 1005.3 |
| 20260506143605 | 64 | 37 | 0.0 | 0.0 | 0.00 | 0.00 | 0.00 | 73 | 1005.3 |
| 20260506143106 | 64 | 155 | 0.0 | 0.0 | 0.00 | 0.00 | 0.00 | 73 | 1005.3 |
| 20260506142502 | 64 | 138 | 0.0 | 0.0 | 0.00 | 0.00 | 0.00 | 72 | 1005.4 |
| 20260506142055 | 64 | 193 | 0.0 | 0.0 | 0.00 | 0.00 | 0.00 | 72 | 1005.4 |
| 20260506141604 | 64 | 193 | 0.0 | 0.0 | 0.00 | 0.00 | 0.00 | 71 | 1005.4 |
| 20260506141102 | 65 | 189 | 0.0 | 0.0 | 0.00 | 0.00 | 0.00 | 69 | 1005.1 |
| 20260506140606 | 65 | 189 | 0.0 | 0.0 | 0.00 | 0.00 | 0.00 | 68 | 1005.1 |
| 20260506140004 | 65 | 171 | 0.0 | 0.0 | 0.00 | 0.00 | 0.00 | 67 | 1005.1 |
| 20260506135557 | 65 | 178 | 0.0 | 0.0 | 0.00 | 0.00 | 0.00 | 66 | 1004.9 |
| 20260506135101 | 66 | 176 | 0.0 | 0.0 | 0.00 | 0.00 | 0.00 | 65 | 1004.9 |
| 20260506134604 | 66 | 179 | 0.0 | 0.0 | 0.00 | 0.00 | 0.00 | 65 | 1004.9 |
| 20260506134004 | 66 | 174 | 0.0 | 0.0 | 0.00 | 0.00 | 0.00 | 65 | 1004.9 |
| 20260506133556 | 65 | 185 | 0.0 | 0.0 | 0.00 | 0.00 | 0.00 | 66 | 1004.9 |
| 20260506133104 | 65 | 192 | 0.0 | 0.0 | 0.00 | 0.00 | 0.00 | 66 | 1004.9 |
| 20260506132605 | 65 | 185 | 0.0 | 0.0 | 0.00 | 0.00 | 0.00 | 66 | 1005.0 |
| 20260506132105 | 65 | 164 | 0.0 | 0.0 | 0.00 | 0.00 | 0.00 | 67 | 1005.0 |
| 20260506131553 | 65 | 175 | 0.0 | 0.0 | 0.00 | 0.00 | 0.00 | 68 | 1005.0 |
| 20260506131101 | 65 | 193 | 0.0 | 0.0 | 0.00 | 0.00 | 0.00 | 68 | 1005.1 |
| 20260506130604 | 65 | 186 | 0.0 | 0.0 | 0.00 | 0.00 | 0.00 | 68 | 1005.1 |
| 20260506130005 | 65 | 185 | 0.0 | 0.0 | 0.00 | 0.00 | 0.00 | 68 | 1005.1 |
| 20260506125506 | 65 | 178 | 0.0 | 0.0 | 0.00 | 0.00 | 0.00 | 68 | 1005.3 |
| 20260506125059 | 65 | 189 | 0.0 | 0.0 | 0.00 | 0.00 | 0.00 | 68 | 1005.3 |
| 20260506124606 | 65 | 198 | 0.0 | 0.0 | 0.00 | 0.00 | 0.00 | 68 | 1005.3 |
| 20260506124002 | 65 | 176 | 0.0 | 0.0 | 0.00 | 0.00 | 0.00 | 68 | 1005.2 |
| 20260506123504 | 65 | 175 | 0.0 | 0.0 | 0.00 | 0.00 | 0.00 | 68 | 1005.2 |
| 20260506123058 | 65 | 144 | 0.0 | 0.0 | 0.00 | 0.00 | 0.00 | 68 | 1005.2 |
| 20260506122550 | 65 | 174 | 0.0 | 0.0 | 0.00 | 0.00 | 0.00 | 68 | 1005.0 |
| 20260506122052 | 65 | 136 | 0.0 | 0.0 | 0.00 | 0.00 | 0.00 | 68 | 1005.0 |
| 20260506121555 | 65 | 178 | 0.0 | 0.0 | 0.00 | 0.00 | 0.00 | 68 | 1005.0 |
| 20260506121042 | 65 | 179 | 0.0 | 0.0 | 0.00 | 0.00 | 0.00 | 69 | 1004.8 |
| 20260506120546 | 65 | 179 | 0.0 | 0.0 | 0.00 | 0.00 | 0.00 | 69 | 1004.8 |
| 20260506120049 | 65 | 120 | 0.0 | 0.0 | 0.00 | 0.00 | 0.00 | 69 | 1004.8 |
| 20260506115550 | 65 | 199 | 0.0 | 0.0 | 0.00 | 0.00 | 0.00 | 69 | 1004.9 |
| 20260506115056 | 65 | 200 | 0.0 | 0.0 | 0.00 | 0.00 | 0.00 | 69 | 1004.9 |
| 20260506114604 | 65 | 150 | 0.0 | 0.0 | 0.00 | 0.00 | 0.00 | 69 | 1004.9 |
| 20260506114102 | 65 | 171 | 0.0 | 0.0 | 0.00 | 0.00 | 0.00 | 69 | 1004.7 |
| 20260506113549 | 64 | 167 | 0.0 | 0.0 | 0.00 | 0.00 | 0.00 | 69 | 1004.7 |
| 20260506113058 | 64 | 179 | 0.0 | 0.0 | 0.00 | 0.00 | 0.00 | 69 | 1004.7 |
| 20260506112555 | 64 | 189 | 0.0 | 0.0 | 0.00 | 0.00 | 0.00 | 69 | 1004.7 |
| 20260506112103 | 64 | 189 | 0.0 | 0.0 | 0.00 | 0.00 | 0.00 | 70 | 1004.7 |
| 20260506111504 | 64 | 189 | 0.0 | 0.0 | 0.00 | 0.00 | 0.00 | 70 | 1004.7 |
| 20260506111007 | 64 | 189 | 0.0 | 0.0 | 0.00 | 0.00 | 0.00 | 70 | 1004.7 |
| 20260506110606 | 64 | 185 | 0.0 | 0.0 | 0.00 | 0.00 | 0.00 | 70 | 1004.7 |
| 20260506110003 | 64 | 178 | 0.0 | 0.0 | 0.00 | 0.00 | 0.00 | 70 | 1004.7 |
| 20260506105507 | 64 | 179 | 0.0 | 0.0 | 0.00 | 0.00 | 0.00 | 70 | 1004.7 |
| 20260506105102 | 64 | 178 | 0.0 | 0.0 | 0.00 | 0.00 | 0.00 | 70 | 1004.7 |
| 20260506104603 | 64 | 165 | 0.0 | 0.0 | 0.00 | 0.00 | 0.00 | 70 | 1004.7 |
| 20260506104105 | 64 | 165 | 0.0 | 0.0 | 0.00 | 0.00 | 0.00 | 70 | 1004.6 |
| 20260506103502 | 64 | 186 | 0.0 | 0.0 | 0.00 | 0.00 | 0.00 | 70 | 1004.6 |
| 20260506103100 | 64 | 178 | 0.0 | 0.0 | 0.00 | 0.00 | 0.00 | 71 | 1004.6 |
| 20260506102559 | 64 | 169 | 0.0 | 0.0 | 0.00 | 0.00 | 0.00 | 71 | 1004.6 |
| 20260506102101 | 64 | 169 | 0.0 | 0.0 | 0.00 | 0.00 | 0.00 | 71 | 1004.6 |
| 20260506101604 | 64 | 168 | 0.0 | 0.0 | 0.00 | 0.00 | 0.00 | 70 | 1004.6 |
| 20260506101003 | 64 | 165 | 0.0 | 0.0 | 0.00 | 0.00 | 0.00 | 70 | 1004.5 |
| 20260506100504 | 64 | 130 | 0.0 | 0.0 | 0.00 | 0.00 | 0.00 | 70 | 1004.5 |
| 20260506100010 | 64 | 130 | 0.0 | 0.0 | 0.00 | 0.00 | 0.00 | 70 | 1004.5 |
| 20260506095600 | 64 | 130 | 0.0 | 0.0 | 0.00 | 0.00 | 0.00 | 69 | 1004.5 |
| 20260506095104 | 64 | 191 | 0.0 | 0.0 | 0.00 | 0.00 | 0.00 | 69 | 1004.5 |
| 20260506094504 | 64 | 167 | 0.0 | 0.0 | 0.00 | 0.00 | 0.00 | 69 | 1004.5 |
| 20260506094006 | 65 | 172 | 0.0 | 0.0 | 0.00 | 0.00 | 0.00 | 69 | 1004.6 |
| 20260506093606 | 65 | 169 | 0.0 | 0.0 | 0.00 | 0.00 | 0.00 | 69 | 1004.6 |
| 20260506093004 | 65 | 168 | 0.0 | 0.0 | 0.00 | 0.00 | 0.00 | 68 | 1004.6 |
| 20260506092509 | 65 | 176 | 0.0 | 0.0 | 0.00 | 0.00 | 0.00 | 68 | 1004.6 |
| 20260506092011 | 65 | 178 | 0.0 | 0.0 | 0.00 | 0.00 | 0.00 | 68 | 1004.6 |
| 20260506091605 | 65 | 169 | 0.0 | 0.0 | 0.00 | 0.00 | 0.00 | 68 | 1004.6 |
| 20260506091002 | 65 | 155 | 0.0 | 0.0 | 0.00 | 0.00 | 0.00 | 67 | 1004.6 |
| 20260506090505 | 65 | 123 | 0.0 | 0.0 | 0.00 | 0.00 | 0.00 | 67 | 1004.6 |
| 20260506085504 | 66 | 185 | 0.0 | 0.0 | 0.00 | 0.00 | 0.00 | 66 | 1004.7 |
| 20260506085008 | 66 | 150 | 0.0 | 0.0 | 0.00 | 0.00 | 0.00 | 66 | 1004.7 |
| 20260506084608 | 66 | 172 | 0.0 | 0.0 | 0.00 | 0.00 | 0.00 | 65 | 1004.7 |
| 20260506084003 | 66 | 148 | 0.0 | 0.0 | 0.00 | 0.00 | 0.00 | 65 | 1004.5 |
| 20260506083506 | 66 | 148 | 0.0 | 0.0 | 0.00 | 0.00 | 0.00 | 65 | 1004.5 |
| 20260506083100 | 66 | 175 | 0.0 | 0.0 | 0.00 | 0.00 | 0.00 | 65 | 1004.5 |
| 20260506082505 | 66 | 175 | 0.0 | 0.0 | 0.00 | 0.00 | 0.00 | 65 | 1004.6 |
| 20260506082007 | 66 | 191 | 0.0 | 0.0 | 0.00 | 0.00 | 0.00 | 65 | 1004.6 |
| 20260506081602 | 66 | 168 | 0.0 | 0.0 | 0.00 | 0.00 | 0.00 | 65 | 1004.6 |
| 20260506081106 | 66 | 171 | 0.0 | 0.0 | 0.00 | 0.00 | 0.00 | 65 | 1004.7 |
| 20260506080503 | 66 | 143 | 0.0 | 0.0 | 0.00 | 0.00 | 0.00 | 66 | 1004.7 |
| 20260506073101 | 66 | 176 | 0.0 | 0.0 | 0.00 | 0.00 | 0.00 | 67 | 1004.9 |
| 20260506072604 | 66 | 176 | 0.0 | 0.0 | 0.00 | 0.00 | 0.00 | 67 | 1004.9 |
| 20260506072003 | 66 | 176 | 0.0 | 0.0 | 0.00 | 0.00 | 0.00 | 66 | 1004.9 |
| 20260506071555 | 66 | 176 | 0.0 | 0.0 | 0.00 | 0.00 | 0.00 | 66 | 1004.9 |
| 20260506071059 | 66 | 176 | 0.0 | 0.0 | 0.00 | 0.00 | 0.00 | 66 | 1005.0 |
| 20260506070504 | 66 | 176 | 0.0 | 0.0 | 0.00 | 0.00 | 0.00 | 66 | 1005.0 |
| 20260506062003 | 67 | 182 | 0.0 | 0.0 | 0.00 | 0.00 | 0.00 | 65 | 1005.4 |
| 20260506061506 | 67 | 182 | 0.0 | 0.0 | 0.00 | 0.00 | 0.00 | 65 | 1005.4 |
| 20260506061100 | 67 | 176 | 0.0 | 0.0 | 0.00 | 0.00 | 0.00 | 65 | 1005.4 |
| 20260506060602 | 67 | 176 | 0.0 | 0.0 | 0.00 | 0.00 | 0.00 | 65 | 1005.4 |
| 20260506060111 | 67 | 176 | 0.0 | 0.0 | 0.00 | 0.00 | 0.00 | 64 | 1005.4 |
| 20260506051008 | 68 | 176 | 0.0 | 0.0 | 0.00 | 0.00 | 0.00 | 58 | 1005.8 |
| 20260506050515 | 68 | 179 | 0.0 | 0.0 | 0.00 | 0.00 | 0.00 | 58 | 1005.8 |
| 20260506045051 | 68 | 150 | 0.0 | 0.0 | 0.00 | 0.00 | 0.00 | 56 | 1005.9 |
| 20260506044613 | 68 | 157 | 0.0 | 0.0 | 0.00 | 0.00 | 0.00 | 56 | 1005.9 |
| 20260506044053 | 68 | 155 | 0.0 | 0.0 | 0.00 | 0.00 | 0.00 | 55 | 1005.9 |
| 20260506043558 | 68 | 161 | 0.0 | 0.0 | 0.00 | 0.00 | 0.00 | 55 | 1005.9 |
| 20260506043102 | 68 | 161 | 0.0 | 0.0 | 0.00 | 0.00 | 0.00 | 55 | 1005.9 |
| 20260506042605 | 68 | 169 | 0.0 | 0.0 | 0.00 | 0.00 | 0.00 | 54 | 1005.9 |
| 20260506042053 | 68 | 169 | 0.0 | 0.0 | 0.00 | 0.00 | 0.00 | 54 | 1005.9 |
| 20260506041555 | 68 | 169 | 0.0 | 0.0 | 0.00 | 0.00 | 0.00 | 54 | 1005.9 |
| 20260506041057 | 68 | 169 | 0.0 | 0.0 | 0.00 | 0.00 | 0.00 | 54 | 1005.9 |
| 20260506040604 | 68 | 169 | 0.0 | 0.0 | 0.00 | 0.00 | 0.00 | 53 | 1005.9 |
| 20260506040001 | 69 | 169 | 0.0 | 0.0 | 0.00 | 0.00 | 0.00 | 53 | 1005.9 |
| 20260506035503 | 69 | 169 | 0.0 | 0.0 | 0.00 | 0.00 | 0.00 | 53 | 1005.8 |
| 20260506035057 | 69 | 169 | 0.0 | 0.0 | 0.00 | 0.00 | 0.00 | 53 | 1005.8 |
| 20260506034604 | 69 | 169 | 0.0 | 0.0 | 0.00 | 0.00 | 0.00 | 52 | 1005.8 |
| 20260506034001 | 69 | 169 | 0.0 | 0.0 | 0.00 | 0.00 | 0.00 | 52 | 1005.7 |
| 20260506033503 | 69 | 169 | 0.0 | 0.0 | 0.00 | 0.00 | 0.00 | 52 | 1005.7 |
| 20260506033005 | 69 | 169 | 0.0 | 0.0 | 0.00 | 0.00 | 0.00 | 52 | 1005.7 |
| 20260506032507 | 69 | 169 | 0.0 | 0.0 | 0.00 | 0.00 | 0.00 | 52 | 1005.7 |
| 20260506032010 | 69 | 169 | 0.0 | 0.0 | 0.00 | 0.00 | 0.00 | 51 | 1005.7 |
| 20260506031606 | 69 | 169 | 0.0 | 0.0 | 0.00 | 0.00 | 0.00 | 51 | 1005.7 |
| 20260506031007 | 69 | 169 | 0.0 | 0.0 | 0.00 | 0.00 | 0.00 | 50 | 1005.9 |
| 20260506030510 | 69 | 175 | 0.0 | 0.0 | 0.00 | 0.00 | 0.00 | 51 | 1005.9 |
| 20260506025502 | 70 | 175 | 0.0 | 0.0 | 0.00 | 0.00 | 0.00 | 50 | 1005.9 |
| 20260506025006 | 70 | 175 | 0.0 | 0.0 | 0.00 | 0.00 | 0.00 | 50 | 1005.9 |
| 20260506024602 | 70 | 175 | 0.0 | 0.0 | 0.00 | 0.00 | 0.00 | 50 | 1005.9 |
| 20260506024104 | 70 | 175 | 0.0 | 0.0 | 0.00 | 0.00 | 0.00 | 49 | 1005.9 |
| 20260506023607 | 70 | 175 | 0.0 | 0.0 | 0.00 | 0.00 | 0.00 | 49 | 1005.9 |
| 20260506023004 | 70 | 160 | 0.0 | 0.0 | 0.00 | 0.00 | 0.00 | 49 | 1005.9 |
| 20260506022557 | 70 | 157 | 0.0 | 0.0 | 0.00 | 0.00 | 0.00 | 49 | 1005.9 |
| 20260506022059 | 70 | 157 | 0.0 | 0.0 | 0.00 | 0.00 | 0.00 | 48 | 1005.9 |
| 20260506021619 | 71 | 157 | 0.0 | 0.0 | 0.00 | 0.00 | 0.00 | 48 | 1005.9 |
| 20260506021106 | 71 | 157 | 0.0 | 0.0 | 0.00 | 0.00 | 0.00 | 47 | 1005.8 |
| 20260506020554 | 71 | 157 | 0.0 | 0.0 | 0.00 | 0.00 | 0.00 | 47 | 1005.8 |
| 20260506020042 | 71 | 154 | 0.0 | 0.0 | 0.00 | 0.00 | 0.00 | 46 | 1005.8 |
| 20260506015529 | 71 | 154 | 0.0 | 0.0 | 0.00 | 0.00 | 0.00 | 46 | 1005.6 |
| 20260506015034 | 71 | 154 | 0.0 | 0.0 | 0.00 | 0.00 | 0.00 | 45 | 1005.6 |
| 20260506014537 | 72 | 154 | 0.0 | 0.0 | 0.00 | 0.00 | 0.00 | 45 | 1005.6 |
| 20260506014041 | 72 | 134 | 0.0 | 0.0 | 0.00 | 0.00 | 0.00 | 44 | 1005.5 |
| 20260506013549 | 72 | 134 | 0.0 | 0.0 | 0.00 | 0.00 | 0.00 | 44 | 1005.5 |
| 20260506013104 | 72 | 174 | 0.0 | 0.0 | 0.00 | 0.00 | 0.00 | 43 | 1005.5 |
| 20260506012600 | 72 | 176 | 0.0 | 0.0 | 0.00 | 0.00 | 0.00 | 43 | 1005.3 |
| 20260506012104 | 72 | 176 | 0.0 | 0.0 | 0.00 | 0.00 | 0.00 | 43 | 1005.3 |
| 20260506011502 | 72 | 176 | 0.0 | 0.0 | 0.00 | 0.00 | 0.00 | 42 | 1005.3 |
| 20260506011008 | 73 | 176 | 0.0 | 0.0 | 0.00 | 0.00 | 0.00 | 42 | 1005.2 |
| 20260506010556 | 73 | 172 | 0.0 | 0.0 | 0.00 | 0.00 | 0.00 | 42 | 1005.2 |
| 20260506010003 | 73 | 171 | 0.0 | 0.0 | 0.00 | 0.00 | 0.00 | 41 | 1005.2 |
| 20260506005505 | 73 | 171 | 0.0 | 0.0 | 0.00 | 0.00 | 0.00 | 41 | 1005.0 |
| 20260506005008 | 73 | 171 | 0.0 | 0.0 | 0.00 | 0.00 | 0.00 | 40 | 1005.0 |
| 20260506004510 | 73 | 171 | 0.0 | 0.0 | 0.00 | 0.00 | 0.00 | 40 | 1005.0 |
| 20260506004014 | 74 | 171 | 0.0 | 0.0 | 0.00 | 0.00 | 0.00 | 40 | 1004.9 |
| 20260506003604 | 74 | 171 | 0.0 | 0.0 | 0.00 | 0.00 | 0.00 | 39 | 1004.9 |
| 20260506003005 | 74 | 171 | 0.0 | 0.0 | 0.00 | 0.00 | 0.00 | 39 | 1004.9 |
| 20260506002507 | 74 | 168 | 0.0 | 0.0 | 0.00 | 0.00 | 0.00 | 39 | 1004.7 |
| 20260506002010 | 74 | 168 | 0.0 | 0.0 | 0.00 | 0.00 | 0.00 | 38 | 1004.7 |
| 20260506001607 | 74 | 168 | 0.0 | 0.0 | 0.00 | 0.00 | 0.00 | 38 | 1004.7 |
| 20260506001006 | 75 | 168 | 0.0 | 0.0 | 0.00 | 0.00 | 0.00 | 37 | 1004.5 |
| 20260506000602 | 75 | 168 | 0.0 | 0.0 | 0.00 | 0.00 | 0.00 | 37 | 1004.5 |
| 20260506000001 | 75 | 147 | 0.0 | 0.0 | 0.00 | 0.00 | 0.00 | 36 | 1004.5 |
| 20260505235503 | 76 | 143 | 0.0 | 0.0 | 0.00 | 0.00 | 0.00 | 36 | 1004.4 |
| 20260505235007 | 76 | 174 | 0.0 | 0.0 | 0.00 | 0.00 | 0.00 | 35 | 1004.4 |
| 20260505234610 | 76 | 186 | 0.0 | 0.0 | 0.00 | 0.00 | 0.00 | 35 | 1004.4 |
| 20260505234105 | 76 | 127 | 0.0 | 0.0 | 0.00 | 0.00 | 0.00 | 34 | 1004.4 |
| 20260505233502 | 77 | 179 | 0.0 | 0.0 | 0.00 | 0.00 | 0.00 | 32 | 1004.4 |
| 20260505233008 | 77 | 179 | 0.0 | 0.0 | 0.00 | 0.00 | 0.00 | 32 | 1004.4 |
| 20260505232510 | 77 | 179 | 0.0 | 0.0 | 0.00 | 0.00 | 0.00 | 31 | 1004.3 |
| 20260505232011 | 77 | 178 | 0.0 | 0.0 | 0.00 | 0.00 | 0.00 | 30 | 1004.3 |
| 20260505231606 | 77 | 168 | 0.0 | 0.0 | 0.00 | 0.00 | 0.00 | 30 | 1004.3 |